This is the latest recevied weather packets stored in our database for station/object KC5DAQ-2. If no packets are shown the sender has not sent any weather packets the latest 10 day(s).
| Time | Temp. | Humidity | Pressure | Rain* | Wind** | Luminosity | Snow |
|---|---|---|---|---|---|---|---|
| 1777583552 | 21.67° C | 93% | 1001.7 hPa | 0 mm | - | 292 W/m² | - |
| 1777583493 | 21.67° C | 93% | 1001.6 hPa | 0 mm | - | 292 W/m² | - |
| 1777583432 | 21.67° C | 93% | 1001.6 hPa | 0 mm | - | 292 W/m² | - |
| 1777583373 | 21.67° C | 93% | 1001.6 hPa | 0 mm | - | 278 W/m² | - |
| 1777583313 | 21.67° C | 93% | 1001.5 hPa | 0 mm | - | 220 W/m² | - |
| 1777583252 | 21.67° C | 93% | 1001.5 hPa | 0 mm | - | 220 W/m² | - |
| 1777583195 | 21.67° C | 93% | 1001.4 hPa | 0 mm | - | 220 W/m² | - |
| 1777583133 | 21.67° C | 93% | 1001.4 hPa | 0 mm | - | 220 W/m² | - |
| 1777583073 | 21.67° C | 93% | 1001.5 hPa | 0 mm | - | 220 W/m² | - |
| 1777583007 | 21.67° C | 93% | 1001.6 hPa | 0 mm | - | 213 W/m² | - |
| 1777582937 | 21.67° C | 92% | 1001.8 hPa | 0 mm | - | 216 W/m² | - |
| 1777582872 | 21.67° C | 92% | 1001.9 hPa | 0 mm | - | 216 W/m² | - |
| 1777582814 | 21.67° C | 92% | 1002.1 hPa | 0 mm | - | 216 W/m² | - |
| 1777582752 | 21.67° C | 92% | 1002.1 hPa | 0 mm | - | 216 W/m² | - |
| 1777582692 | 21.67° C | 92% | 1002.1 hPa | 0 mm | - | 216 W/m² | - |
| 1777582632 | 21.67° C | 92% | 1002.1 hPa | 0 mm | - | 216 W/m² | - |
| 1777582572 | 21.67° C | 92% | 1002.2 hPa | 0 mm | - | 206 W/m² | - |
| 1777582512 | 22.22° C | 92% | 1002.2 hPa | 0 mm | - | 181 W/m² | - |
| 1777582453 | 22.22° C | 92% | 1002.4 hPa | 0 mm | - | 181 W/m² | - |
| 1777582392 | 22.22° C | 92% | 1002.5 hPa | 0 mm | - | 139 W/m² | - |
| 1777582333 | 22.22° C | 92% | 1002.5 hPa | 0 mm | - | 139 W/m² | - |
| 1777582271 | 22.22° C | 92% | 1002.6 hPa | 0 mm | - | 139 W/m² | - |
| 1777582211 | 22.22° C | 92% | 1002.6 hPa | 0 mm | - | 139 W/m² | - |
| 1777582152 | 22.22° C | 92% | 1002.7 hPa | 0 mm | - | 139 W/m² | - |
| 1777582093 | 22.22° C | 92% | 1002.8 hPa | 0 mm | - | 104 W/m² | - |
* Rain latest hour (hover to see other rain measurements)
** Current wind speed in m/s (hover to see current wind gust speed)